User: anonymous   Login
Location: Bothwell
(42.3833°S, 147.0000°E)
Time: 04:44:15
(UTC+10:00)
Language:

RS-15 - Orbit

View from above orbital plane
View from above orbital plane
View from above satellite
View from above satellite

Ground track
Ground track

The orbit data is extracted from the following two-line orbital elements,

1 23439U 94085A   22267.55245352 -.00000039  00000-0  10000-3 0  9994
2 23439  64.8212 345.3337 0167953 255.5882 102.6350 11.27572330142667
Epoch (UTC): 24 September 2022 13:15:31
Eccentricity: 0.0167953
inclination: 64.8212°
perigee height: 1881 km
apogee height: 2163 km
right ascension of ascending node: 345.3337°
argument of perigee: 255.5882°
revolutions per day: 11.27572330
mean anomaly at epoch: 102.6350°
orbit number at epoch: 14266

The dashed part of the orbit path shows where the satellite is in the earth's shadow,  

DLR